Year,Month,Day,Hour,Minute,Value (Times are PST for temperature in C)
2009,03,12,00,00,-2.70
2009,03,12,00,01,-2.70
2009,03,12,00,02,-2.70
2009,03,12,00,03,-2.70
2009,03,12,00,04,-2.70
2009,03,12,00,05,-2.70
2009,03,12,00,06,-2.80
2009,03,12,00,07,-2.80
2009,03,12,00,08,-2.80
2009,03,12,00,09,-2.80
2009,03,12,00,10,-2.80
2009,03,12,00,11,-2.80
2009,03,12,00,12,-2.80
2009,03,12,00,13,-2.80
2009,03,12,00,14,-2.80
2009,03,12,00,15,-2.80
2009,03,12,00,16,-2.80
2009,03,12,00,17,-2.80
2009,03,12,00,18,-2.80
2009,03,12,00,19,-2.80
2009,03,12,00,20,-2.80
2009,03,12,00,21,-2.80
2009,03,12,00,22,-2.80
2009,03,12,00,23,-2.80
2009,03,12,00,24,-2.80
2009,03,12,00,25,-2.80
2009,03,12,00,26,-2.80
2009,03,12,00,27,-2.80
2009,03,12,00,28,-2.80
2009,03,12,00,29,-2.80
2009,03,12,00,30,-2.80
2009,03,12,00,31,-2.80
2009,03,12,00,32,-2.90
2009,03,12,00,33,-2.90
2009,03,12,00,34,-2.90
2009,03,12,00,35,-2.90
2009,03,12,00,36,-3.00
2009,03,12,00,37,-3.00
2009,03,12,00,38,-3.00
2009,03,12,00,39,-3.10
2009,03,12,00,40,-3.10
2009,03,12,00,41,-3.10
2009,03,12,00,42,-3.20
2009,03,12,00,43,-3.20
2009,03,12,00,44,-3.20
2009,03,12,00,45,-3.20
2009,03,12,00,46,-3.20
2009,03,12,00,47,-3.20
2009,03,12,00,48,-3.20
2009,03,12,00,49,-3.20
2009,03,12,00,50,-3.20
2009,03,12,00,51,-3.20
2009,03,12,00,52,-3.20
2009,03,12,00,53,-3.20
2009,03,12,00,54,-3.20
2009,03,12,00,55,-3.20
2009,03,12,00,56,-3.20
2009,03,12,00,57,-3.20
2009,03,12,00,58,-3.20
2009,03,12,00,59,-3.20
2009,03,12,01,00,-3.20
2009,03,12,01,01,-3.20
2009,03,12,01,02,-3.20
2009,03,12,01,03,-3.20
2009,03,12,01,04,-3.20
2009,03,12,01,05,-3.20
2009,03,12,01,06,-3.30
2009,03,12,01,07,-3.30
2009,03,12,01,08,-3.30
2009,03,12,01,09,-3.30
2009,03,12,01,10,-3.30
2009,03,12,01,11,-3.30
2009,03,12,01,12,-3.30
2009,03,12,01,13,-3.30
2009,03,12,01,14,-3.30
2009,03,12,01,15,-3.30
2009,03,12,01,16,-3.40
2009,03,12,01,17,-3.40
2009,03,12,01,18,-3.40
2009,03,12,03,02,-4.90
2009,03,12,03,03,-4.90
2009,03,12,03,04,-4.90
2009,03,12,03,05,-4.90
2009,03,12,03,06,-4.90
2009,03,12,03,07,-4.90
2009,03,12,03,08,-4.90
2009,03,12,03,09,-4.90
2009,03,12,03,10,-4.90
2009,03,12,03,11,-4.90
2009,03,12,03,12,-4.80
2009,03,12,03,13,-4.80
2009,03,12,03,14,-4.80
2009,03,12,03,15,-4.80
2009,03,12,03,16,-4.80
2009,03,12,03,17,-4.70
2009,03,12,03,18,-4.70
2009,03,12,03,19,-4.60
2009,03,12,03,20,-4.50
2009,03,12,03,21,-4.50
2009,03,12,03,22,-4.40
2009,03,12,03,23,-4.30
2009,03,12,03,24,-4.20
2009,03,12,03,25,-4.10
2009,03,12,03,26,-4.00
2009,03,12,03,27,-4.00
2009,03,12,03,28,-3.90
2009,03,12,03,29,-3.90
2009,03,12,03,30,-3.80
2009,03,12,03,31,-3.80
2009,03,12,03,32,-3.70
2009,03,12,03,33,-3.70
2009,03,12,03,34,-3.70
2009,03,12,03,35,-3.60
2009,03,12,03,36,-3.60
2009,03,12,03,37,-3.50
2009,03,12,03,38,-3.50
2009,03,12,03,39,-3.50
2009,03,12,03,40,-3.40
2009,03,12,03,41,-3.40
2009,03,12,03,42,-3.40
2009,03,12,03,43,-3.40
2009,03,12,03,44,-3.40
2009,03,12,03,45,-3.40
2009,03,12,03,46,-3.40
2009,03,12,03,47,-3.30
2009,03,12,03,48,-3.30
2009,03,12,03,49,-3.30
2009,03,12,03,50,-3.30
2009,03,12,03,51,-3.30
2009,03,12,03,52,-3.30
2009,03,12,03,53,-3.30
2009,03,12,03,54,-3.40
2009,03,12,03,55,-3.40
2009,03,12,03,56,-3.40
2009,03,12,03,57,-3.40
2009,03,12,03,58,-3.40
2009,03,12,03,59,-3.40
2009,03,12,04,00,-3.40
2009,03,12,04,01,-3.40
2009,03,12,04,02,-3.40
2009,03,12,04,03,-3.40
2009,03,12,04,04,-3.50
2009,03,12,04,05,-3.50
2009,03,12,04,06,-3.50
2009,03,12,04,07,-3.50
2009,03,12,04,08,-3.50
2009,03,12,04,09,-3.60
2009,03,12,04,10,-3.60
2009,03,12,04,11,-3.60
2009,03,12,04,12,-3.60
2009,03,12,04,13,-3.60
2009,03,12,04,14,-3.60
2009,03,12,04,15,-3.70
2009,03,12,04,16,-3.70
2009,03,12,04,17,-3.70
2009,03,12,04,18,-3.70
2009,03,12,04,19,-3.80
2009,03,12,04,20,-3.80
2009,03,12,04,21,-3.80
2009,03,12,04,22,-3.80
2009,03,12,04,23,-3.80
2009,03,12,04,24,-3.90
2009,03,12,04,25,-3.90
2009,03,12,04,26,-3.90
2009,03,12,04,27,-4.00
2009,03,12,04,28,-4.00
2009,03,12,04,29,-4.00
2009,03,12,04,30,-4.00
2009,03,12,04,31,-4.10
2009,03,12,04,32,-4.10
2009,03,12,04,33,-4.10
2009,03,12,04,34,-4.10
2009,03,12,04,35,-4.10
2009,03,12,04,36,-4.10
2009,03,12,04,37,-4.10
2009,03,12,04,38,-4.10
2009,03,12,04,39,-4.10
2009,03,12,04,40,-4.10
2009,03,12,04,41,-4.10
2009,03,12,04,42,-4.10
2009,03,12,04,43,-4.10
2009,03,12,04,44,-4.10
2009,03,12,04,45,-4.10
2009,03,12,04,46,-4.10
2009,03,12,04,47,-4.10
2009,03,12,04,48,-4.10
2009,03,12,04,49,-4.10
2009,03,12,04,50,-4.10
2009,03,12,04,51,-4.20
2009,03,12,04,52,-4.20
2009,03,12,04,53,-4.20
2009,03,12,04,54,-4.20
2009,03,12,04,55,-4.20
2009,03,12,04,56,-4.20
2009,03,12,04,57,-4.30
2009,03,12,04,58,-4.30
2009,03,12,04,59,-4.30
2009,03,12,05,00,-4.30
2009,03,12,05,01,-4.30
2009,03,12,05,02,-4.30
2009,03,12,05,03,-4.40
2009,03,12,05,04,-4.40
2009,03,12,05,05,-4.40
2009,03,12,05,06,-4.30
2009,03,12,05,07,-4.30
2009,03,12,05,08,-4.30
2009,03,12,05,09,-4.30
2009,03,12,05,10,-4.30
2009,03,12,05,11,-4.30
2009,03,12,05,12,-4.30
2009,03,12,05,13,-4.20
2009,03,12,05,14,-4.20
2009,03,12,05,15,-4.20
2009,03,12,05,16,-4.20
2009,03,12,05,17,-4.20
2009,03,12,05,18,-4.20
2009,03,12,05,19,-4.20
2009,03,12,05,20,-4.20
2009,03,12,05,21,-4.20
2009,03,12,05,22,-4.30
2009,03,12,05,23,-4.30
2009,03,12,05,24,-4.30
2009,03,12,05,25,-4.30
2009,03,12,05,26,-4.30
2009,03,12,05,27,-4.30
2009,03,12,05,28,-4.30
2009,03,12,05,29,-4.30
2009,03,12,05,30,-4.30
2009,03,12,05,31,-4.30
2009,03,12,05,32,-4.30
2009,03,12,05,33,-4.30
2009,03,12,05,34,-4.30
2009,03,12,05,35,-4.30
2009,03,12,05,36,-4.30
2009,03,12,05,37,-4.30
2009,03,12,05,38,-4.40
2009,03,12,05,39,-4.40
2009,03,12,05,40,-4.40
2009,03,12,05,41,-4.40
2009,03,12,05,42,-4.40
2009,03,12,05,43,-4.50
2009,03,12,05,44,-4.50
2009,03,12,05,45,-4.50
2009,03,12,05,46,-4.50
2009,03,12,05,47,-4.50
2009,03,12,05,48,-4.50
2009,03,12,05,49,-4.50
2009,03,12,05,50,-4.50
2009,03,12,05,51,-4.50
2009,03,12,05,52,-4.50
2009,03,12,05,53,-4.50
2009,03,12,05,54,-4.50
2009,03,12,05,55,-4.50
2009,03,12,05,56,-4.50
2009,03,12,05,57,-4.60
2009,03,12,05,58,-4.60
2009,03,12,05,59,-4.60
2009,03,12,06,00,-4.60
2009,03,12,06,01,-4.60
2009,03,12,06,02,-4.60
2009,03,12,06,03,-4.60
2009,03,12,06,04,-4.60
2009,03,12,06,05,-4.60
2009,03,12,06,06,-4.60
2009,03,12,06,07,-4.70
2009,03,12,06,08,-4.70
2009,03,12,06,09,-4.70
2009,03,12,06,10,-4.70
2009,03,12,06,11,-4.70
2009,03,12,06,12,-4.70
2009,03,12,06,13,-4.70
2009,03,12,06,14,-4.80
2009,03,12,06,15,-4.80
2009,03,12,06,16,-4.80
2009,03,12,06,17,-4.80
2009,03,12,06,18,-4.80
2009,03,12,06,19,-4.80
2009,03,12,06,20,-4.80
2009,03,12,06,21,-4.80
2009,03,12,06,22,-4.80
2009,03,12,06,23,-4.80
2009,03,12,06,24,-4.80
2009,03,12,06,25,-4.80
2009,03,12,06,26,-4.80
2009,03,12,06,27,-4.80
2009,03,12,06,28,-4.80
2009,03,12,06,29,-4.80
2009,03,12,06,30,-4.80
2009,03,12,06,31,-4.80
2009,03,12,06,32,-4.80
2009,03,12,06,33,-4.90
2009,03,12,06,34,-4.90
2009,03,12,06,35,-4.90
2009,03,12,06,36,-4.90
2009,03,12,06,37,-4.90
2009,03,12,06,38,-4.90
2009,03,12,06,39,-4.90
2009,03,12,06,40,-5.00
2009,03,12,06,41,-5.00
2009,03,12,06,42,-5.10
2009,03,12,06,43,-5.10
2009,03,12,06,44,-5.10
2009,03,12,06,45,-5.10
2009,03,12,06,46,-5.10
2009,03,12,06,47,-5.10
2009,03,12,06,48,-5.20
2009,03,12,06,49,-5.20
2009,03,12,06,50,-5.20
2009,03,12,06,51,-5.20
2009,03,12,06,52,-5.20
2009,03,12,06,53,-5.10
2009,03,12,06,54,-5.10
2009,03,12,06,55,-5.10
2009,03,12,06,56,-5.10
2009,03,12,06,57,-5.10
2009,03,12,06,58,-5.10
2009,03,12,06,59,-5.10
2009,03,12,07,00,-5.10
2009,03,12,07,01,-5.10
2009,03,12,07,02,-5.10
2009,03,12,07,03,-5.10
2009,03,12,07,04,-5.10
2009,03,12,07,05,-5.10
2009,03,12,07,06,-5.10
2009,03,12,07,07,-5.10
2009,03,12,07,08,-5.10
2009,03,12,07,09,-5.10
2009,03,12,07,10,-5.10
2009,03,12,07,11,-5.10
2009,03,12,07,12,-5.10
2009,03,12,07,13,-5.10
2009,03,12,07,14,-5.10
2009,03,12,07,15,-5.10
2009,03,12,07,16,-5.10
2009,03,12,07,17,-5.10
2009,03,12,07,18,-5.00
2009,03,12,07,19,-5.00
2009,03,12,07,20,-5.00
2009,03,12,07,21,-5.00
2009,03,12,07,22,-5.00
2009,03,12,07,23,-5.00
2009,03,12,07,24,-5.00
2009,03,12,07,25,-5.00
2009,03,12,07,26,-5.00
2009,03,12,07,27,-5.00
2009,03,12,07,28,-5.00
2009,03,12,07,29,-5.00
2009,03,12,07,30,-5.00
2009,03,12,07,31,-5.00
2009,03,12,07,32,-5.00
2009,03,12,07,33,-5.00
2009,03,12,07,34,-5.00
2009,03,12,07,35,-5.00
2009,03,12,07,36,-5.00
2009,03,12,07,37,-5.00
2009,03,12,07,38,-5.00
2009,03,12,07,39,-5.00
2009,03,12,07,40,-5.00
2009,03,12,07,41,-5.00
2009,03,12,07,42,-5.00
2009,03,12,07,43,-5.00
2009,03,12,07,44,-5.00
2009,03,12,07,45,-5.00
2009,03,12,07,46,-5.00
2009,03,12,07,47,-4.90
2009,03,12,07,48,-4.90
2009,03,12,07,49,-4.90
2009,03,12,07,50,-4.90
2009,03,12,07,51,-4.90
2009,03,12,07,52,-4.90
2009,03,12,07,53,-4.80
2009,03,12,07,54,-4.80
2009,03,12,07,55,-4.80
2009,03,12,07,56,-4.80
2009,03,12,07,57,-4.80
2009,03,12,07,58,-4.80
2009,03,12,07,59,-4.80
2009,03,12,08,00,-4.70
2009,03,12,08,01,-4.70
2009,03,12,08,02,-4.70
2009,03,12,08,03,-4.70
2009,03,12,08,04,-4.60
2009,03,12,08,05,-4.60
2009,03,12,08,06,-4.60
2009,03,12,08,07,-4.50
2009,03,12,08,08,-4.50
2009,03,12,08,09,-4.40
2009,03,12,08,10,-4.30
2009,03,12,08,11,-4.30
2009,03,12,08,12,-4.20
2009,03,12,08,13,-4.20
2009,03,12,08,14,-4.10
2009,03,12,08,15,-4.10
2009,03,12,08,16,-4.00
2009,03,12,08,17,-3.90
2009,03,12,08,18,-3.90
2009,03,12,08,19,-3.80
2009,03,12,08,20,-3.80
2009,03,12,08,21,-3.80
2009,03,12,08,22,-3.70
2009,03,12,08,23,-3.70
2009,03,12,08,24,-3.60
2009,03,12,08,25,-3.60
2009,03,12,08,26,-3.50
2009,03,12,08,27,-3.50
2009,03,12,08,28,-3.40
2009,03,12,08,29,-3.30
2009,03,12,08,30,-3.30
2009,03,12,08,31,-3.30
2009,03,12,08,32,-3.20
2009,03,12,08,33,-3.20
2009,03,12,08,34,-3.10
2009,03,12,08,35,-3.00
2009,03,12,08,36,-2.90
2009,03,12,08,37,-2.80
2009,03,12,08,38,-2.80
2009,03,12,08,39,-2.70
2009,03,12,08,40,-2.70
2009,03,12,08,41,-2.60
2009,03,12,08,42,-2.50
2009,03,12,08,43,-2.50
2009,03,12,08,44,-2.40
2009,03,12,08,45,-2.40
2009,03,12,08,46,-2.30
2009,03,12,08,47,-2.30
2009,03,12,08,48,-2.20
2009,03,12,08,49,-2.10
2009,03,12,08,50,-2.10
2009,03,12,08,51,-2.00
2009,03,12,08,52,-1.90
2009,03,12,08,53,-1.80
2009,03,12,08,54,-1.80
2009,03,12,08,55,-1.70
2009,03,12,08,56,-1.60
2009,03,12,08,57,-1.50
2009,03,12,08,58,-1.40
2009,03,12,08,59,-1.30
2009,03,12,09,00,-1.20
2009,03,12,09,01,-1.10
2009,03,12,09,02,-0.90
2009,03,12,09,03,-0.80
2009,03,12,09,04,-0.60
2009,03,12,09,05,-0.50
2009,03,12,09,06,-0.30
2009,03,12,09,07,-0.20
2009,03,12,09,08,0.00
2009,03,12,09,09,0.10
2009,03,12,09,10,0.20
2009,03,12,09,11,0.30
2009,03,12,09,12,0.40
2009,03,12,09,13,0.50
2009,03,12,09,14,0.60
2009,03,12,09,15,0.60
2009,03,12,09,16,0.70
2009,03,12,09,17,0.80
2009,03,12,09,18,0.80
2009,03,12,09,19,0.90
2009,03,12,09,20,1.00
2009,03,12,09,21,1.10
2009,03,12,09,22,1.10
2009,03,12,09,23,1.20
2009,03,12,09,24,1.30
2009,03,12,09,25,1.30
2009,03,12,09,26,1.30
2009,03,12,09,27,1.40
2009,03,12,09,28,1.50
2009,03,12,09,29,1.60
2009,03,12,09,30,1.80
2009,03,12,09,31,1.90
2009,03,12,09,32,2.00
2009,03,12,09,33,2.10
2009,03,12,09,34,2.20
2009,03,12,09,35,2.20
2009,03,12,09,36,2.30
2009,03,12,09,37,2.40
2009,03,12,09,38,2.50
2009,03,12,09,39,2.50
2009,03,12,09,40,2.60
2009,03,12,09,41,2.70
2009,03,12,09,42,2.70
2009,03,12,09,43,2.80
2009,03,12,09,44,2.90
2009,03,12,09,45,2.90
2009,03,12,09,46,3.00
2009,03,12,09,47,3.00
2009,03,12,09,48,3.10
2009,03,12,09,49,3.10
2009,03,12,09,50,3.10
2009,03,12,09,51,3.10
2009,03,12,09,52,3.10
2009,03,12,09,53,3.20
2009,03,12,09,54,3.20
2009,03,12,09,55,3.30
2009,03,12,09,56,3.30
2009,03,12,09,57,3.30
2009,03,12,09,58,3.40
2009,03,12,09,59,3.40
2009,03,12,10,00,3.50
2009,03,12,10,01,3.50
2009,03,12,10,02,3.60
2009,03,12,10,03,3.70
2009,03,12,10,04,3.70
2009,03,12,10,05,3.80
2009,03,12,10,06,3.80
2009,03,12,10,07,3.80
2009,03,12,10,08,3.90
2009,03,12,10,09,3.90
2009,03,12,10,10,3.90
2009,03,12,10,11,4.00
2009,03,12,10,12,4.00
2009,03,12,10,13,4.00
2009,03,12,10,14,4.10
2009,03,12,10,15,4.10
2009,03,12,10,16,4.20
2009,03,12,10,17,4.20
2009,03,12,10,18,4.30
2009,03,12,10,19,4.30
2009,03,12,10,20,4.30
2009,03,12,10,21,4.40
2009,03,12,10,22,4.40
2009,03,12,10,23,4.50
2009,03,12,10,24,4.50
2009,03,12,10,25,4.60
2009,03,12,10,26,4.60
2009,03,12,10,27,4.50
2009,03,12,10,28,4.50
2009,03,12,10,29,4.60
2009,03,12,10,30,4.60
2009,03,12,10,31,4.70
2009,03,12,10,32,4.80
2009,03,12,10,33,4.80
2009,03,12,10,34,4.80
2009,03,12,10,35,4.80
2009,03,12,10,36,4.80
2009,03,12,10,37,4.80
2009,03,12,10,38,4.80
2009,03,12,10,39,4.80
2009,03,12,10,40,4.80
2009,03,12,10,41,4.80
2009,03,12,10,42,4.90
2009,03,12,10,43,4.90
2009,03,12,10,44,4.90
2009,03,12,10,45,5.00
2009,03,12,10,46,5.10
2009,03,12,10,47,5.10
2009,03,12,10,48,5.20
2009,03,12,10,49,5.30
2009,03,12,10,50,5.40
2009,03,12,10,51,5.40
2009,03,12,10,52,5.40
2009,03,12,10,53,5.40
2009,03,12,10,54,5.30
2009,03,12,10,55,5.30
2009,03,12,10,56,5.20
2009,03,12,10,57,5.10
2009,03,12,10,58,5.00
2009,03,12,10,59,5.00
2009,03,12,11,00,5.00
2009,03,12,11,01,5.10
2009,03,12,11,02,5.00
2009,03,12,11,03,5.00
2009,03,12,11,04,5.00
2009,03,12,11,05,5.00
2009,03,12,11,06,5.10
2009,03,12,11,07,5.10
2009,03,12,11,08,5.10
2009,03,12,11,09,5.20
2009,03,12,11,10,5.30
2009,03,12,11,11,5.30
2009,03,12,11,12,5.30
2009,03,12,11,13,5.30
2009,03,12,11,14,5.30
2009,03,12,11,15,5.30
2009,03,12,11,16,5.30
2009,03,12,11,17,5.30
2009,03,12,11,18,5.20
2009,03,12,11,19,5.20
2009,03,12,11,20,5.20
2009,03,12,11,21,5.20
2009,03,12,11,22,5.30
2009,03,12,11,23,5.40
2009,03,12,11,24,5.50
2009,03,12,11,25,5.50
2009,03,12,11,26,5.60
2009,03,12,11,27,5.60
2009,03,12,11,28,5.60
2009,03,12,11,29,5.60
2009,03,12,11,30,5.60
2009,03,12,11,31,5.60
2009,03,12,11,32,5.60
2009,03,12,11,33,5.60
2009,03,12,11,34,5.70
2009,03,12,11,35,5.80
2009,03,12,11,36,5.80
2009,03,12,11,37,5.90
2009,03,12,11,38,5.90
2009,03,12,11,39,5.80
2009,03,12,11,40,5.80
2009,03,12,11,41,5.80
2009,03,12,11,42,5.80
2009,03,12,11,43,5.80
2009,03,12,11,44,5.90
2009,03,12,11,45,5.90
2009,03,12,11,46,6.00
2009,03,12,11,47,6.00
2009,03,12,11,48,6.00
2009,03,12,11,49,6.00
2009,03,12,11,50,5.90
2009,03,12,11,51,5.90
2009,03,12,11,52,5.90
2009,03,12,11,53,6.00
2009,03,12,11,54,6.10
2009,03,12,11,55,6.10
2009,03,12,11,56,6.00
2009,03,12,11,57,5.90
2009,03,12,11,58,5.80
2009,03,12,11,59,5.70
2009,03,12,12,00,5.70
2009,03,12,12,01,5.80
2009,03,12,12,02,5.90
2009,03,12,12,03,6.00
2009,03,12,12,04,6.00
2009,03,12,12,05,6.00
2009,03,12,12,06,6.00
2009,03,12,12,07,6.10
2009,03,12,12,08,6.10
2009,03,12,12,09,6.20
2009,03,12,12,10,6.20
2009,03,12,12,11,6.30
2009,03,12,12,12,6.20
2009,03,12,12,13,6.30
2009,03,12,12,14,6.30
2009,03,12,12,15,6.20
2009,03,12,12,16,6.20
2009,03,12,12,17,6.20
2009,03,12,12,18,6.20
2009,03,12,12,19,6.20
2009,03,12,12,20,6.20
2009,03,12,12,21,6.30
2009,03,12,12,22,6.30
2009,03,12,12,23,6.40
2009,03,12,12,24,6.50
2009,03,12,12,25,6.40
2009,03,12,12,26,6.30
2009,03,12,12,27,6.20
2009,03,12,12,28,6.10
2009,03,12,12,29,6.00
2009,03,12,12,30,6.00
2009,03,12,12,31,6.10
2009,03,12,12,32,6.00
2009,03,12,12,33,6.10
2009,03,12,12,34,6.10
2009,03,12,12,35,6.20
2009,03,12,12,36,6.30
2009,03,12,12,37,6.30
2009,03,12,12,38,6.30
2009,03,12,12,39,6.40
2009,03,12,12,40,6.50
2009,03,12,12,41,6.50
2009,03,12,12,42,6.50
2009,03,12,12,43,6.50
2009,03,12,12,44,6.40
2009,03,12,12,45,6.40
2009,03,12,12,46,6.40
2009,03,12,12,47,6.40
2009,03,12,12,48,6.50
2009,03,12,12,49,6.60
2009,03,12,12,50,6.70
2009,03,12,12,51,6.80
2009,03,12,12,52,6.80
2009,03,12,12,53,6.70
2009,03,12,12,54,6.70
2009,03,12,12,55,6.80
2009,03,12,12,56,6.90
2009,03,12,12,57,7.00
2009,03,12,12,58,7.10
2009,03,12,12,59,7.20
2009,03,12,13,00,7.20
2009,03,12,13,01,7.20
2009,03,12,13,02,6.90
2009,03,12,13,03,6.60
2009,03,12,13,04,6.40
2009,03,12,13,05,6.30
2009,03,12,13,06,6.20
2009,03,12,13,07,6.20
2009,03,12,13,08,6.20
2009,03,12,13,09,6.20
2009,03,12,13,10,6.20
2009,03,12,13,11,6.30
2009,03,12,13,12,6.40
2009,03,12,13,13,6.50
2009,03,12,13,14,6.50
2009,03,12,13,15,6.40
2009,03,12,13,16,6.40
2009,03,12,13,17,6.40
2009,03,12,13,18,6.40
2009,03,12,13,19,6.40
2009,03,12,13,20,6.40
2009,03,12,13,21,6.50
2009,03,12,13,22,6.50
2009,03,12,13,23,6.50
2009,03,12,13,24,6.60
2009,03,12,13,25,6.70
2009,03,12,13,26,6.70
2009,03,12,13,27,6.80
2009,03,12,13,28,6.90
2009,03,12,13,29,6.90
2009,03,12,13,30,6.90
2009,03,12,13,31,6.90
2009,03,12,13,32,7.00
2009,03,12,13,33,7.10
2009,03,12,13,34,7.20
2009,03,12,13,35,7.20
2009,03,12,13,36,7.10
2009,03,12,13,37,7.10
2009,03,12,13,38,7.10
2009,03,12,13,39,7.00
2009,03,12,13,40,7.00
2009,03,12,13,41,6.90
2009,03,12,13,42,6.90
2009,03,12,13,43,6.80
2009,03,12,13,44,6.80
2009,03,12,13,45,6.90
2009,03,12,13,46,6.90
2009,03,12,13,47,7.00
2009,03,12,13,48,7.10
2009,03,12,13,49,7.20
2009,03,12,13,50,7.20
2009,03,12,13,51,7.20
2009,03,12,13,52,7.30
2009,03,12,13,53,7.30
2009,03,12,13,54,7.40
2009,03,12,13,55,7.50
2009,03,12,13,56,7.60
2009,03,12,13,57,7.50
2009,03,12,13,58,7.40
2009,03,12,13,59,7.40
2009,03,12,14,00,7.50
2009,03,12,14,01,7.50
2009,03,12,14,02,7.60
2009,03,12,14,03,7.60
2009,03,12,14,04,7.60
2009,03,12,14,05,7.60
2009,03,12,14,06,7.60
2009,03,12,14,07,7.60
2009,03,12,14,08,7.60
2009,03,12,14,09,7.50
2009,03,12,14,10,7.50
2009,03,12,14,11,7.50
2009,03,12,14,12,7.60
2009,03,12,14,13,7.70
2009,03,12,14,14,7.70
2009,03,12,14,15,7.80
2009,03,12,14,16,7.80
2009,03,12,14,17,7.90
2009,03,12,14,18,8.00
2009,03,12,14,19,8.10
2009,03,12,14,20,8.10
2009,03,12,14,21,8.00
2009,03,12,14,22,8.00
2009,03,12,14,23,8.00
2009,03,12,14,24,8.10
2009,03,12,14,25,8.10
2009,03,12,14,26,8.10
2009,03,12,14,27,8.00
2009,03,12,14,28,8.00
2009,03,12,14,29,8.00
2009,03,12,14,30,8.00
2009,03,12,14,31,8.10
2009,03,12,14,32,8.10
2009,03,12,14,33,8.10
2009,03,12,14,34,8.10
2009,03,12,14,35,8.00
2009,03,12,14,36,8.00
2009,03,12,14,37,7.90
2009,03,12,14,38,7.80
2009,03,12,14,39,7.80
2009,03,12,14,40,7.80
2009,03,12,14,41,7.80
2009,03,12,14,42,7.80
2009,03,12,14,43,7.70
2009,03,12,14,44,7.50
2009,03,12,14,45,7.50
2009,03,12,14,46,7.60
2009,03,12,14,47,7.50
2009,03,12,14,48,7.50
2009,03,12,14,49,7.40
2009,03,12,14,50,7.30
2009,03,12,14,51,7.30
2009,03,12,14,52,7.40
2009,03,12,14,53,7.40
2009,03,12,14,54,7.50
2009,03,12,14,55,7.60
2009,03,12,14,56,7.70
2009,03,12,14,57,7.80
2009,03,12,14,58,7.90
2009,03,12,14,59,8.00
2009,03,12,15,00,8.00
2009,03,12,15,01,7.80
2009,03,12,15,02,7.80
2009,03,12,15,03,7.70
2009,03,12,15,04,7.70
2009,03,12,15,05,7.70
2009,03,12,15,06,7.70
2009,03,12,15,07,7.80
2009,03,12,15,08,7.70
2009,03,12,15,09,7.70
2009,03,12,15,10,7.70
2009,03,12,15,11,7.80
2009,03,12,15,12,7.90
2009,03,12,15,13,8.00
2009,03,12,15,14,8.10
2009,03,12,15,15,8.20
2009,03,12,15,16,8.30
2009,03,12,15,17,8.40
2009,03,12,15,18,8.40
2009,03,12,15,19,8.40
2009,03,12,15,20,8.30
2009,03,12,15,21,8.20
2009,03,12,15,22,8.20
2009,03,12,15,23,8.20
2009,03,12,15,24,8.20
2009,03,12,15,25,8.20
2009,03,12,15,26,8.20
2009,03,12,15,27,8.20
2009,03,12,15,28,8.10
2009,03,12,15,29,8.10
2009,03,12,15,30,8.20
2009,03,12,15,31,8.30
2009,03,12,15,32,8.40
2009,03,12,15,33,8.50
2009,03,12,15,34,8.40
2009,03,12,15,35,8.40
2009,03,12,15,36,8.50
2009,03,12,15,37,8.50
2009,03,12,15,38,8.70
2009,03,12,15,39,8.80
2009,03,12,15,40,8.80
2009,03,12,15,41,8.80
2009,03,12,15,42,8.80
2009,03,12,15,43,8.60
2009,03,12,15,44,8.50
2009,03,12,15,45,8.40
2009,03,12,15,46,8.40
2009,03,12,15,47,8.50
2009,03,12,15,48,8.60
2009,03,12,15,49,8.60
2009,03,12,15,50,8.50
2009,03,12,15,51,8.40
2009,03,12,15,52,8.40
2009,03,12,15,53,8.40
2009,03,12,15,54,8.40
2009,03,12,15,55,8.40
2009,03,12,15,56,8.30
2009,03,12,15,57,8.20
2009,03,12,15,58,8.20
2009,03,12,15,59,8.20
2009,03,12,16,00,8.20
2009,03,12,16,01,8.20
2009,03,12,16,02,8.20
2009,03,12,16,03,8.30
2009,03,12,16,04,8.30
2009,03,12,16,05,8.30
2009,03,12,16,06,8.30
2009,03,12,16,07,8.30
2009,03,12,16,08,8.30
2009,03,12,16,09,8.40
2009,03,12,16,10,8.50
2009,03,12,16,11,8.50
2009,03,12,16,12,8.50
2009,03,12,16,13,8.60
2009,03,12,16,14,8.70
2009,03,12,16,15,8.70
2009,03,12,16,16,8.70
2009,03,12,16,17,8.60
2009,03,12,16,18,8.60
2009,03,12,16,19,8.60
2009,03,12,16,20,8.70
2009,03,12,16,21,8.60
2009,03,12,16,22,8.50
2009,03,12,16,23,8.40
2009,03,12,16,24,8.30
2009,03,12,16,25,8.30
2009,03,12,16,26,8.30
2009,03,12,16,27,8.30
2009,03,12,16,28,8.40
2009,03,12,16,29,8.40
2009,03,12,16,30,8.40
2009,03,12,16,31,8.50
2009,03,12,16,32,8.60
2009,03,12,16,33,8.50
2009,03,12,16,34,8.40
2009,03,12,16,35,8.40
2009,03,12,16,36,8.40
2009,03,12,16,37,8.40
2009,03,12,16,38,8.30
2009,03,12,16,39,8.20
2009,03,12,16,40,8.20
2009,03,12,16,41,8.30
2009,03,12,16,42,8.30
2009,03,12,16,43,8.40
2009,03,12,16,44,8.40
2009,03,12,16,45,8.50
2009,03,12,16,46,8.60
2009,03,12,16,47,8.60
2009,03,12,16,48,8.70
2009,03,12,16,49,8.70
2009,03,12,16,50,8.70
2009,03,12,16,51,8.80
2009,03,12,16,52,8.70
2009,03,12,16,53,8.70
2009,03,12,16,54,8.60
2009,03,12,16,55,8.60
2009,03,12,16,56,8.60
2009,03,12,16,57,8.60
2009,03,12,16,58,8.60
2009,03,12,16,59,8.50
2009,03,12,17,00,8.50
2009,03,12,17,01,8.50
2009,03,12,17,02,8.50
2009,03,12,17,03,8.60
2009,03,12,17,04,8.60
2009,03,12,17,05,8.70
2009,03,12,17,06,8.70
2009,03,12,17,07,8.70
2009,03,12,17,08,8.70
2009,03,12,17,09,8.70
2009,03,12,17,10,8.60
2009,03,12,17,11,8.60
2009,03,12,17,12,8.50
2009,03,12,17,13,8.50
2009,03,12,17,14,8.40
2009,03,12,17,15,8.30
2009,03,12,17,16,8.30
2009,03,12,17,17,8.30
2009,03,12,17,18,8.30
2009,03,12,17,19,8.30
2009,03,12,17,20,8.30
2009,03,12,17,21,8.30
2009,03,12,17,22,8.30
2009,03,12,17,23,8.30
2009,03,12,17,24,8.40
2009,03,12,17,25,8.40
2009,03,12,17,26,8.40
2009,03,12,17,27,8.40
2009,03,12,17,28,8.30
2009,03,12,17,29,8.30
2009,03,12,17,30,8.20
2009,03,12,17,31,8.10
2009,03,12,17,32,8.10
2009,03,12,17,33,8.00
2009,03,12,17,34,8.00
2009,03,12,17,35,8.00
2009,03,12,17,36,8.00
2009,03,12,17,37,8.00
2009,03,12,17,38,8.00
2009,03,12,17,39,8.00
2009,03,12,17,40,8.00
2009,03,12,17,41,8.00
2009,03,12,17,42,8.00
2009,03,12,17,43,8.00
2009,03,12,17,44,7.90
2009,03,12,17,45,7.90
2009,03,12,17,46,7.90
2009,03,12,17,47,7.90
2009,03,12,17,48,7.80
2009,03,12,17,49,7.70
2009,03,12,17,50,7.60
2009,03,12,17,51,7.40
2009,03,12,17,52,7.30
2009,03,12,17,53,7.20
2009,03,12,17,54,7.20
2009,03,12,17,55,7.20
2009,03,12,17,56,7.10
2009,03,12,17,57,7.10
2009,03,12,17,58,7.00
2009,03,12,17,59,7.00
2009,03,12,18,00,6.90
2009,03,12,18,01,7.00
2009,03,12,18,02,7.00
2009,03,12,18,03,7.00
2009,03,12,18,04,7.00
2009,03,12,18,05,7.00
2009,03,12,18,06,7.00
2009,03,12,18,07,7.00
2009,03,12,18,08,6.90
2009,03,12,18,09,6.90
2009,03,12,18,10,6.90
2009,03,12,18,11,6.90
2009,03,12,18,12,6.80
2009,03,12,18,13,6.80
2009,03,12,18,14,6.80
2009,03,12,18,15,6.90
2009,03,12,18,16,6.90
2009,03,12,18,17,6.90
2009,03,12,18,18,6.90
2009,03,12,18,19,6.90
2009,03,12,18,20,7.00
2009,03,12,18,21,7.00
2009,03,12,18,22,7.00
2009,03,12,18,23,7.00
2009,03,12,18,24,6.90
2009,03,12,18,25,6.90
2009,03,12,18,26,6.90
2009,03,12,18,27,6.80
2009,03,12,18,28,6.80
2009,03,12,18,29,6.80
2009,03,12,18,30,6.70
2009,03,12,18,31,6.70
2009,03,12,18,32,6.60
2009,03,12,18,33,6.60
2009,03,12,18,34,6.60
2009,03,12,18,35,6.50
2009,03,12,18,36,6.50
2009,03,12,18,37,6.40
2009,03,12,18,38,6.40
2009,03,12,18,39,6.40
2009,03,12,18,40,6.40
2009,03,12,18,41,6.40
2009,03,12,18,42,6.40
2009,03,12,18,43,6.40
2009,03,12,18,44,6.40
2009,03,12,18,45,6.40
2009,03,12,18,46,6.40
2009,03,12,18,47,6.30
2009,03,12,18,48,6.30
2009,03,12,18,49,6.30
2009,03,12,18,50,6.30
2009,03,12,18,51,6.30
2009,03,12,18,52,6.30
2009,03,12,18,53,6.30
2009,03,12,18,54,6.20
2009,03,12,18,55,6.20
2009,03,12,18,56,6.20
2009,03,12,18,57,6.20
2009,03,12,18,58,6.10
2009,03,12,18,59,6.10
2009,03,12,19,00,6.00
2009,03,12,19,01,6.00
2009,03,12,19,02,5.90
2009,03,12,19,03,5.90
2009,03,12,19,04,5.90
2009,03,12,19,05,5.80
2009,03,12,19,06,5.80
2009,03,12,19,07,5.80
2009,03,12,19,08,5.70
2009,03,12,19,09,5.70
2009,03,12,19,10,5.70
2009,03,12,19,11,5.60
2009,03,12,19,12,5.60
2009,03,12,19,13,5.50
2009,03,12,19,14,5.50
2009,03,12,19,15,5.40
2009,03,12,19,16,5.40
2009,03,12,19,17,5.30
2009,03,12,19,18,5.30
2009,03,12,19,19,5.20
2009,03,12,19,20,5.20
2009,03,12,19,21,5.10
2009,03,12,19,22,5.00
2009,03,12,19,23,5.00
2009,03,12,19,24,4.90
2009,03,12,19,25,4.90
2009,03,12,19,26,4.80
2009,03,12,19,27,4.80
2009,03,12,19,28,4.70
2009,03,12,19,29,4.70